Find Starlink 3146

NORAD ID: 49414 Int'l Des: 2021-104 Owner: SPXS Country: US Constellation: starlink operational
LEOCIRCULAR

当前视图

正在加载3D地球...

About Starlink 3146

Starlink 3146 (NORAD 49414) is a starlink constellation satellite (v1.5) launched Nov 13, 2021 by SPXS of US. It operates in LEO, CIRCULAR orbit with a mass of 290.00 kg.

即将过境

Passes for default location (London). Set your location on the main map for personalized predictions.

高度历史

Loading altitude history...

两行轨道根数

1 49414U 21104G 26262.79711591 .00000058 00000-0 13111-4 0 9992
2 49414 53.1597 65.1416 0001296 78.4313 281.6835 15.33549790268107
Epoch: Sep 19, 2026 • Age: 19 hours

当前状态

高度 465.0 km
远地点 / 近地点 N/A
速度 7.64 km/s
星下点 16.02°N, 135.46°W
发射日期 Nov 13, 2021
运行时间 4.8 years
类型 internet

技术详情

分类 Payload
质量 290.00 kg
干质量 270.00 kg
长度 0.20 m
跨度 9.00 m
形状 ? Box + pan
制造商 SPXS
平台类型 Starlink
阶段状态 In Orbit
所有者/国家 SPXS/US

Most Searched